GFSNE_850_thetae_000.txt.gz
Theta_e
294 294 295 295 297 297 297 297 297 299 300 301 301 300 300 300 303 303 302 302 304 314 316 317 318 319 321 319 319 318 316 314 311 311 310 310 308 307
293 294 294 295 295 296 296 297 298 299 300 299 300 300 299 299 299 301 303 303 303 305 313 316 317 317 318 319 317 317 317 315 314 309 306 307 307 306
292 292 292 293 293 293 294 295 296 297 298 298 298 299 299 298 297 298 300 301 302 305 307 309 313 314 317 317 317 317 316 317 315 312 303 305 305 305
291 292 292 292 293 293 294 294 295 295 296 297 297 298 298 298 297 296 298 300 301 300 300 305 307 309 314 315 317 318 316 318 316 314 302 303 304 304
290 290 290 291 291 292 292 293 293 294 295 296 296 296 297 297 297 296 295 297 299 300 300 299 297 303 310 313 310 317 318 315 315 316 304 304 304 304
290 290 290 290 291 291 291 292 292 292 293 294 295 296 296 296 296 296 296 294 295 298 299 299 296 298 306 308 308 309 316 317 316 316 312 308 306 305
288 288 288 288 288 288 289 289 289 290 290 292 293 295 296 296 296 296 296 296 296 298 297 298 297 296 302 303 305 306 310 316 316 316 313 310 308 308
286 285 284 284 284 285 285 286 286 287 287 288 290 292 294 295 296 296 296 296 296 297 298 298 297 298 298 304 304 306 306 312 315 313 316 313 310 309
284 284 284 284 284 284 285 285 286 286 286 286 287 288 289 292 295 296 296 296 296 298 298 297 296 298 300 300 302 303 304 308 313 313 313 314 312 311
285 284 284 284 284 284 285 285 285 286 287 287 287 287 287 288 292 294 294 295 296 297 298 297 296 298 300 302 303 304 305 304 309 313 312 312 313 312
285 286 286 286 286 285 285 286 286 286 286 287 288 287 287 287 288 290 292 292 294 296 298 297 296 297 298 300 301 302 304 304 308 310 312 312 312 312
285 285 285 285 285 286 286 286 285 285 286 286 286 287 287 287 287 288 289 289 291 292 296 296 296 296 295 296 298 300 302 303 302 307 309 311 311 306
284 284 284 284 285 285 286 287 286 286 286 286 286 287 287 287 287 288 288 289 290 291 294 295 296 295 295 293 294 295 297 299 299 298 305 308 305 303
283 284 284 284 285 285 285 285 286 286 286 286 287 287 287 287 287 288 289 290 290 291 293 295 295 295 294 293 291 292 294 295 296 297 298 299 299 298
283 283 284 284 285 285 285 285 286 285 285 286 286 287 287 287 288 290 290 290 292 292 293 295 295 294 295 295 295 291 291 292 294 296 295 294 294 295
284 285 285 285 286 285 286 288 289 288 287 286 286 287 287 288 289 291 290 292 292 292 292 294 295 295 294 293 293 292 291 291 291 291 292 291 291 291
284 284 284 284 284 285 287 288 287 287 287 286 287 287 287 289 290 291 291 291 291 291 292 292 293 293 292 291 290 291 290 289 290 291 291 291 288 289
283 283 282 283 283 284 286 288 288 287 287 287 287 288 289 290 291 291 291 290 290 290 291 291 292 290 288 287 288 289 287 287 287 287 287 287 286 285
283 282 282 282 282 282 284 286 288 288 287 287 288 289 289 290 290 289 289 289 289 289 289 290 290 288 288 285 283 285 287 285 285 285 285 285 286 286
283 282 282 281 282 281 282 284 285 287 288 288 289 289 289 289 289 287 287 288 288 287 287 287 286 286 288 286 283 282 283 285 285 284 283 283 283 283
282 282 282 281 281 281 281 282 283 284 285 286 287 287 287 287 287 286 286 286 286 285 284 284 285 285 285 285 284 281 281 281 282 283 282 282 281 281
281 281 281 281 281 280 280 281 282 282 282 283 283 284 285 285 285 285 285 284 284 284 284 283 283 284 284 285 284 282 281 280 280 280 280 280 280 279
281 280 280 280 280 280 280 280 281 281 281 281 281 282 282 283 283 283 283 283 283 283 282 282 282 283 283 283 283 281 280 279 279 279 279 279 279 280

GFSNE_850_thetae_003.txt.gz
Theta_e
292 293 294 294 294 294 294 295 296 297 297 298 298 297 298 299 301 301 301 302 303 304 304 304 306 314 317 318 321 319 317 317 317 315 313 312 313 313
292 293 293 294 294 295 295 296 296 297 297 297 298 299 300 300 301 300 300 299 298 300 302 302 303 305 314 316 317 320 319 316 318 317 315 312 312 314
292 292 292 292 293 293 294 294 294 294 294 295 295 296 297 298 297 298 299 298 296 297 299 300 301 304 307 310 315 316 320 319 319 318 316 314 311 313
291 291 291 291 291 292 292 292 292 293 293 293 294 294 295 296 296 297 298 298 297 296 295 298 300 300 300 302 309 315 314 320 316 319 317 316 312 311
290 290 290 290 290 290 290 291 292 292 293 294 294 295 295 295 296 296 296 296 297 296 295 295 296 298 298 299 300 303 311 312 317 319 317 317 313 310
289 290 290 290 290 290 290 291 291 292 292 293 293 293 293 294 295 296 296 296 296 296 295 294 294 295 297 296 298 298 303 309 313 317 317 316 315 311
288 288 288 288 288 288 288 288 288 288 288 289 289 290 291 291 292 295 296 296 296 296 295 295 296 296 297 296 298 298 300 307 309 310 318 316 316 314
287 287 287 286 285 285 285 285 285 284 285 285 286 287 288 289 291 293 296 296 296 296 296 295 295 296 297 298 298 298 296 303 307 308 309 317 315 315
284 284 284 284 284 284 284 284 284 284 285 285 285 285 286 287 288 289 292 292 295 296 296 296 296 296 297 298 297 296 298 302 306 307 307 309 315 316
284 284 284 285 285 285 285 285 285 285 285 285 285 285 286 286 286 286 287 291 293 294 295 296 296 296 298 298 296 295 299 300 304 304 304 306 311 313
284 284 284 285 285 285 285 285 285 285 285 285 285 285 286 286 287 287 287 287 288 290 291 294 295 296 298 297 295 297 299 300 303 302 304 303 305 313
283 283 283 283 284 284 284 285 285 285 285 286 286 285 285 286 287 288 288 288 287 289 290 291 293 294 296 296 294 296 298 300 302 303 304 304 305 311
283 283 283 283 283 284 284 284 285 285 285 286 286 286 286 286 286 286 287 287 288 287 289 291 292 292 293 295 294 296 297 299 302 302 303 304 304 308
284 283 283 284 283 284 284 285 285 285 285 286 286 286 286 286 286 287 287 287 287 287 287 289 290 291 293 294 294 293 295 296 298 301 301 302 299 297
283 283 284 285 285 285 285 285 285 285 285 285 285 285 286 286 286 286 287 287 288 288 288 288 289 291 291 293 293 293 293 293 295 298 298 297 297 296
283 283 283 284 283 284 284 285 287 287 287 287 287 286 285 285 286 287 288 288 290 290 289 289 290 292 292 293 292 293 293 292 292 294 295 295 294 295
282 282 282 282 282 283 286 287 287 287 287 287 286 285 285 286 287 288 288 290 290 290 290 291 292 292 291 290 292 291 291 290 290 291 291 291 291 292
282 281 281 281 281 283 284 287 287 287 287 287 287 286 287 287 287 288 289 289 290 290 291 291 291 290 290 290 289 289 289 289 289 289 290 291 290 290
282 282 281 281 280 281 283 284 286 287 287 287 287 288 288 289 289 289 290 290 290 290 290 290 290 291 290 288 287 287 287 287 287 287 287 289 289 287
281 281 281 280 280 281 281 283 284 285 287 288 288 288 289 289 289 289 289 289 289 289 289 289 289 289 289 290 288 286 285 285 285 285 285 285 286 286
281 280 280 280 280 280 280 281 282 283 284 286 286 286 287 286 286 287 288 287 287 287 287 287 286 287 287 287 286 284 284 283 283 284 284 284 283 283
280 280 280 280 280 280 280 280 280 281 281 282 284 284 285 285 285 285 285 285 285 286 285 285 285 284 285 285 285 284 282 281 281 281 282 282 282 281
279 279 279 280 280 280 279 279 279 279 280 280 281 281 283 284 284 284 284 284 284 284 283 283 283 283 283 284 284 282 282 280 280 280 280 280 280 281

GFSNE_850_thetae_006.txt.gz
Theta_e
291 291 292 292 293 293 294 294 294 295 296 296 297 297 296 299 300 300 300 301 300 300 299 300 304 303 304 305 314 316 316 318 317 318 318 315 314 312
292 292 292 291 291 292 292 292 292 292 293 293 293 294 294 294 296 297 299 298 299 299 298 297 297 300 301 303 306 309 314 315 319 317 318 317 314 313
291 291 291 291 291 291 291 291 291 292 292 292 293 293 294 294 295 295 295 296 296 298 298 298 296 296 296 299 302 302 305 311 314 317 317 317 316 313
288 288 288 289 290 290 290 290 290 291 291 291 291 291 292 292 293 294 295 296 295 295 297 297 296 295 295 296 297 298 299 304 311 312 317 317 316 315
289 289 289 289 289 289 289 289 290 290 290 291 291 291 291 292 293 294 294 294 295 295 295 296 296 296 295 293 294 295 297 297 301 307 311 316 317 317
288 288 288 288 288 288 289 289 289 289 289 289 289 289 290 290 291 291 292 293 293 293 294 295 295 295 295 293 294 295 297 296 297 299 306 311 314 316
287 287 287 287 287 287 287 287 287 286 286 286 286 286 287 287 288 289 289 290 290 293 294 295 296 295 294 294 295 295 296 296 296 297 298 306 310 315
286 286 285 285 285 285 285 284 284 284 284 284 284 285 285 285 286 287 288 288 290 291 294 295 295 295 295 295 295 295 296 297 297 297 296 302 307 310
283 283 283 284 284 284 284 284 285 285 285 284 284 284 285 285 285 285 286 287 289 289 291 294 296 295 295 295 295 295 296 297 297 296 296 297 305 307
283 283 283 283 284 284 284 285 285 285 285 285 285 285 285 285 285 285 286 286 286 287 288 290 291 294 295 295 294 295 296 297 297 295 297 297 304 306
283 283 283 283 283 283 283 284 284 284 284 284 284 285 285 285 285 285 286 286 286 286 287 287 289 291 293 293 294 296 295 295 294 294 299 299 304 305
283 283 283 283 283 283 283 283 283 284 284 284 285 285 285 285 285 285 286 286 286 286 287 287 288 290 291 293 293 295 295 295 294 293 298 299 302 304
283 283 283 283 284 284 284 283 283 284 284 284 284 285 285 286 286 286 286 286 286 287 287 287 288 289 291 292 293 294 294 294 294 297 298 300 301 302
284 283 283 283 283 285 285 284 284 284 284 284 284 285 285 285 286 286 286 286 286 286 286 287 287 288 290 292 291 292 292 293 293 293 295 300 303 303
283 283 283 283 283 283 284 284 285 285 285 285 285 285 285 285 285 286 286 286 286 286 287 287 287 287 287 288 289 290 292 293 293 294 295 297 300 301
283 282 281 281 282 283 284 285 286 287 286 286 286 286 286 286 285 285 285 286 286 287 287 287 288 287 288 289 290 291 291 291 292 293 293 293 296 298
282 281 281 281 281 283 285 286 287 287 287 286 287 286 286 285 285 285 285 286 287 288 288 289 289 288 288 289 290 291 293 291 291 291 291 291 292 293
282 281 280 280 281 282 283 285 286 287 287 288 287 287 286 286 286 286 286 287 287 288 288 289 289 288 288 289 291 292 292 291 289 289 288 288 289 289
281 281 280 279 280 281 282 283 284 285 287 287 287 286 287 288 287 288 287 288 288 288 288 288 289 289 289 290 291 291 289 289 288 287 287 287 288 287
281 280 280 279 279 280 280 281 283 284 285 285 287 287 288 288 288 288 288 288 288 288 289 288 289 289 290 290 289 288 287 286 285 285 285 286 286 285
280 280 280 280 280 280 280 280 280 281 283 284 285 286 287 286 287 287 287 288 288 288 288 288 287 287 286 287 287 285 284 284 284 284 284 284 284 283
279 280 280 280 280 280 280 280 280 280 281 282 283 284 285 285 285 285 285 286 286 285 285 285 284 284 285 285 285 284 282 280 281 282 282 283 283 282
279 279 279 279 279 280 280 280 280 280 280 280 281 281 282 283 284 284 284 284 284 283 283 283 283 283 283 284 284 283 282 280 280 280 281 281 281 282

GFSNE_850_thetae_009.txt.gz
Theta_e
292 291 291 292 291 291 291 291 292 293 293 292 292 292 292 293 293 295 297 297 298 298 300 299 299 301 300 302 303 305 313 315 315 319 319 318 316 314
292 292 291 291 291 291 291 291 291 291 292 292 292 292 292 293 293 294 293 293 295 296 297 298 297 297 296 297 299 303 304 309 315 315 319 317 317 315
290 288 288 288 288 288 288 289 290 290 290 290 290 290 290 290 290 291 291 292 292 294 295 295 297 297 297 296 296 296 298 301 308 313 314 318 318 316
288 288 288 287 288 288 288 288 288 288 289 289 290 290 290 290 289 290 291 292 293 294 295 295 295 296 296 295 295 294 294 296 299 304 312 314 316 317
288 288 287 288 288 288 288 288 288 288 289 289 288 288 289 289 289 289 289 289 290 292 293 294 295 294 296 296 295 295 293 294 295 297 302 311 313 312
287 287 287 287 287 287 287 287 287 287 287 287 287 286 286 287 287 287 288 287 288 289 290 292 293 293 295 295 295 295 294 295 296 295 297 300 307 313
286 286 286 286 286 285 285 285 285 285 285 285 285 285 285 285 286 286 286 286 287 287 288 289 289 290 293 296 296 295 294 294 295 295 295 296 300 306
285 284 284 284 284 284 284 283 283 284 284 284 284 284 284 284 284 284 285 285 286 287 287 288 288 289 292 294 295 294 295 295 295 296 297 297 297 299
283 283 283 283 283 283 283 283 284 284 284 284 284 284 284 284 284 284 284 285 285 286 288 289 290 291 294 295 296 295 294 294 294 295 296 296 296 297
283 283 283 283 283 283 283 283 283 283 284 284 285 284 285 285 285 285 284 285 285 285 286 287 287 288 291 294 295 295 294 294 294 295 296 296 296 296
283 283 283 283 283 283 283 283 283 283 283 283 284 284 284 284 284 285 285 285 285 285 285 286 286 287 288 290 292 293 293 294 295 295 294 294 295 294
283 283 284 284 283 283 283 283 284 284 283 283 284 284 284 284 285 285 285 285 285 285 285 286 286 286 286 289 290 291 293 293 295 295 294 294 293 297
283 283 283 283 283 283 283 283 284 285 284 283 283 284 284 284 284 284 285 285 286 286 286 286 287 287 287 288 291 291 293 293 293 293 293 293 296 296
283 283 283 282 282 282 282 283 284 284 284 284 284 284 284 284 284 285 285 286 286 286 286 286 286 286 287 287 288 289 290 292 292 292 293 293 293 295
283 283 282 281 281 281 282 283 284 284 284 285 285 285 285 285 285 285 285 285 286 286 286 286 286 286 286 287 287 287 289 290 291 291 292 293 294 296
283 283 282 281 281 282 283 284 285 286 287 287 286 286 285 285 285 285 285 285 285 285 285 286 286 286 287 286 287 287 287 288 290 291 292 292 293 294
282 282 281 280 281 282 283 284 285 286 287 287 287 286 285 285 285 285 285 285 285 285 285 287 287 287 287 286 287 287 287 289 290 292 292 292 291 291
282 281 280 279 280 280 281 283 284 285 286 286 286 286 286 286 286 285 285 285 286 286 287 287 288 287 287 287 287 287 288 288 290 291 291 290 289 289
281 280 280 279 280 280 280 281 282 283 284 285 286 286 287 287 287 287 287 287 287 287 287 287 287 286 286 286 287 288 288 289 289 289 289 288 287 287
280 279 279 279 279 280 279 279 280 282 284 284 285 286 287 287 287 287 287 287 287 287 287 286 286 285 285 286 287 286 287 286 286 287 286 286 285 285
279 279 279 279 279 279 280 280 280 280 281 283 284 285 285 286 286 286 286 286 287 287 286 286 286 285 285 286 286 284 284 283 284 284 285 285 285 284
279 279 279 279 279 279 279 279 280 280 280 281 281 282 283 284 284 284 285 285 285 285 285 285 284 284 284 285 285 284 283 283 283 283 283 283 284 283
278 278 279 279 279 279 279 279 279 279 280 280 280 280 281 282 282 283 283 283 283 283 283 284 283 283 283 284 283 282 282 281 281 281 281 282 282 283

GFSNE_850_thetae_012.txt.gz
Theta_e
292 292 291 291 291 291 291 291 291 292 291 291 290 291 291 291 292 292 292 292 294 296 296 298 302 300 297 301 303 307 306 304 315 316 320 320 319 319
292 291 290 288 288 288 288 288 288 289 290 290 290 290 290 291 290 291 291 292 291 292 294 296 296 299 298 297 300 302 304 303 302 310 315 320 319 319
289 289 288 287 287 287 287 287 288 288 289 289 288 289 289 289 289 289 289 289 289 290 292 294 296 296 296 297 297 297 299 300 300 302 310 315 318 319
290 288 287 287 287 287 287 287 288 288 288 288 288 288 288 288 289 289 289 288 288 288 289 293 294 295 295 295 299 296 296 294 295 299 300 313 314 314
287 287 286 286 287 287 287 287 287 287 287 287 287 287 287 287 287 288 288 288 288 288 288 289 291 293 294 295 296 297 296 296 294 294 297 299 309 314
286 286 286 286 286 286 285 285 285 285 285 285 285 285 286 286 286 285 286 286 286 287 287 287 288 290 293 293 294 296 295 295 294 294 294 295 298 309
285 285 284 284 284 284 284 284 283 283 283 284 284 284 284 285 285 285 284 285 285 286 286 287 287 287 289 291 292 294 295 295 295 294 294 293 295 298
284 283 283 283 284 283 283 283 283 283 283 283 283 283 283 284 284 284 284 284 284 285 286 287 287 288 288 288 289 291 294 295 295 294 294 294 295 294
282 283 283 283 283 283 283 283 283 283 283 283 283 283 283 283 284 284 284 284 284 285 285 285 287 287 288 289 291 292 293 294 294 294 294 294 296 297
282 283 283 283 283 283 283 282 283 283 283 283 283 283 283 283 284 284 285 284 284 285 284 285 286 286 287 289 291 294 295 295 295 294 294 294 295 296
283 283 283 283 283 283 283 282 282 283 283 284 284 283 283 283 284 284 284 283 284 284 284 285 285 285 286 287 288 290 294 294 294 294 294 295 295 295
282 283 283 283 283 282 282 283 283 284 283 284 285 284 283 283 284 284 284 284 284 284 284 285 285 285 286 287 288 289 291 292 293 293 294 295 294 294
282 283 283 283 282 282 281 281 282 282 283 284 284 284 284 283 283 284 284 284 285 285 285 285 285 285 286 286 287 289 289 290 291 293 293 292 293 293
282 283 283 282 282 281 281 282 282 283 283 283 284 284 284 285 284 284 284 284 284 284 285 286 286 286 286 286 286 287 288 290 291 291 291 291 291 292
282 282 282 282 281 281 282 283 283 284 285 285 286 286 285 285 285 284 284 284 284 285 285 285 285 285 286 286 286 286 287 289 289 290 290 291 290 292
281 282 281 281 280 281 282 283 284 285 285 286 287 286 286 285 285 285 284 284 285 285 285 286 286 286 285 286 286 286 286 287 287 288 289 289 290 292
281 281 281 280 280 280 281 282 283 284 285 286 286 286 286 286 285 285 284 284 285 285 285 285 285 285 285 285 286 286 286 287 287 287 288 290 291 291
281 281 280 279 279 279 279 281 282 283 284 285 285 285 286 286 286 286 285 284 284 285 285 285 286 286 286 286 286 286 286 287 287 287 288 289 290 289
280 280 279 279 279 279 279 279 280 281 283 284 285 285 286 286 286 286 286 286 286 286 286 286 286 286 286 285 286 286 286 287 287 288 288 288 287 287
279 279 279 279 279 279 278 279 279 280 281 282 284 285 285 286 286 286 286 286 286 286 285 285 285 284 285 285 285 285 285 285 286 286 286 286 286 286
278 278 278 278 278 279 279 279 279 279 279 280 281 282 283 284 285 285 285 286 285 285 285 285 285 285 285 285 285 283 283 283 284 284 284 284 284 285
278 278 278 278 278 278 278 279 279 279 279 279 279 280 281 282 283 284 284 284 284 284 284 284 284 284 284 285 284 283 282 282 282 282 283 283 283 284
277 277 278 278 278 278 277 277 278 279 278 279 279 279 280 281 281 282 282 283 283 283 282 282 283 283 284 284 283 282 281 281 281 281 282 282 282 283

GFSNE_850_thetae_015.txt.gz
Theta_e
291 291 291 290 290 290 290 290 291 292 292 293 292 292 292 292 293 292 293 292 291 291 293 296 297 299 302 299 297 300 301 302 309 315 316 317 317 319
291 290 290 289 288 288 288 289 290 290 290 290 290 291 291 291 291 292 292 291 290 290 290 291 293 295 296 299 298 298 299 302 303 309 311 315 315 318
291 290 290 289 288 288 288 289 289 289 289 289 290 290 290 290 290 290 291 291 291 289 288 289 290 293 296 296 296 297 298 298 301 303 307 310 314 314
290 289 288 287 287 287 287 287 288 288 289 289 289 289 289 290 290 290 290 290 290 290 288 288 288 290 293 296 295 296 298 297 297 300 303 306 307 313
287 286 286 286 286 286 286 286 286 287 287 287 287 288 288 288 288 288 288 289 288 288 287 288 288 288 289 292 295 295 298 297 296 296 297 299 299 309
286 285 285 285 285 285 285 285 285 285 285 286 286 286 287 287 287 287 288 288 288 287 287 287 287 287 288 289 291 295 294 295 296 296 297 296 294 297
284 284 284 283 283 283 283 284 285 285 285 285 285 286 286 286 286 286 287 287 287 287 287 288 288 288 287 287 288 291 294 294 295 296 295 295 296 295
283 283 282 283 283 284 284 283 283 283 284 285 285 285 285 285 285 285 286 286 286 287 286 286 287 288 288 288 287 288 291 293 293 296 295 295 294 294
282 282 283 283 283 283 283 283 283 283 283 282 283 284 284 285 285 284 285 285 286 286 286 286 286 287 288 289 288 288 288 289 290 293 295 295 294 293
282 282 282 282 282 283 283 282 283 283 283 283 283 283 284 284 284 284 284 284 285 285 286 285 286 286 286 287 288 289 290 291 290 291 294 295 294 294
281 281 282 282 283 283 283 283 283 283 283 283 283 283 284 284 284 283 284 284 285 285 285 285 285 285 286 286 286 288 290 291 294 295 295 295 295 294
281 282 282 283 283 282 282 282 282 283 282 283 283 284 284 285 284 284 284 284 285 285 285 285 286 286 287 287 286 287 287 290 292 293 294 294 294 294
281 282 283 283 282 282 282 281 281 281 281 282 283 283 284 284 284 284 284 284 285 285 285 285 286 286 286 287 287 287 287 288 290 292 291 292 293 294
281 282 282 282 282 281 281 282 282 283 283 283 284 284 284 285 285 285 284 284 284 285 285 286 285 286 286 287 287 288 287 287 289 292 291 292 292 292
281 281 281 281 281 281 281 282 283 284 284 284 284 285 286 285 285 285 285 285 285 285 284 284 284 285 286 286 287 287 287 287 288 290 291 291 291 291
280 281 281 281 280 280 281 282 283 283 284 284 285 286 286 286 285 285 285 285 285 285 284 285 285 285 285 285 286 286 286 287 287 288 289 289 290 291
280 280 280 280 280 279 278 280 282 283 284 284 285 285 285 286 286 285 285 285 285 285 285 285 285 286 286 286 286 286 287 287 286 286 287 287 288 289
280 279 279 279 279 277 278 278 280 281 283 284 284 285 285 286 286 286 285 284 285 285 285 285 285 286 285 285 285 286 286 286 287 286 287 287 287 288
279 279 279 279 279 278 278 279 279 280 281 282 283 284 285 285 286 286 286 285 285 285 286 286 286 286 287 287 286 286 286 286 286 286 287 287 288 289
278 278 278 278 278 278 278 279 279 280 280 281 281 283 284 285 285 285 286 286 285 285 285 285 285 285 286 286 285 285 285 285 286 286 286 287 288 288
277 277 277 278 278 278 278 278 279 279 279 280 280 281 282 283 283 284 284 285 285 284 284 284 284 285 285 285 284 284 284 284 284 285 285 285 285 286
276 277 277 277 277 277 276 277 278 279 279 279 279 279 280 281 282 282 283 283 284 284 284 284 284 284 284 284 282 283 282 282 283 283 284 284 283 284
275 275 275 276 276 276 276 276 276 277 278 279 278 279 279 280 280 281 282 282 282 282 282 282 283 283 284 283 282 282 282 282 282 282 282 282 283 283